Location: Newark
(41.0000°N, 28.9500°W)
Time: 23:26:32
(UTC+00:00)

N. Korean satellite - Pass Details

Date: 02 February 2020
Orbit: 456 x 505 km, 97.2° (Epoch: 19 February)

Event Time Altitude Azimuth Distance (km) Brightness Sun altitude
Rises 07:01:07 0° 25° (NNE) 2,572 10.5 -23.8°
Reaches altitude 10° 07:03:29 10° 40° (NE) 1,694 9.8 -23.3°
Maximum altitude 07:06:29 24° 95° (E) 1,068 9.1 -22.8°
Drops below altitude 10° 07:09:30 10° 151° (SSE) 1,700 9.7 -22.2°
Sets 07:11:53 0° 165° (SSE) 2,584 10.5 -21.7°
